EW5962 Weather Reports


Display with metric or nautical units.
time (UTC)temp
F
wind
direction
speed
MPH
gust
MPH
rain 1hr
in
rain 24hr
in
rain mn
in
humidity
%
barometer
mb
20190215193012 63 0.0 0.0 0.00 0.16 0.00 60 1009.7
20190215190036 62 0.0 0.0 0.00 0.16 0.00 59 1010.1
20190215184504 62 0.0 0.0 0.00 0.16 0.00 59 1010.1
20190215183120 62 0.0 0.0 0.00 0.16 0.00 58 1010.5
20190215181526 61 0.0 0.0 0.00 0.16 0.00 57 1010.6
20190215180129 61 0.0 0.0 0.00 0.16 0.00 57 1010.9
20190215173014 61 0.0 0.0 0.00 0.16 0.00 54 1011.6
20190215171520 61 0.0 0.0 0.00 0.16 0.00 56 1012.0
20190215170056 59 0.0 0.0 0.00 0.16 0.00 55 1012.3
20190215164526 59 0.0 0.0 0.00 0.16 0.00 55 1012.5
20190215163058 59 0.0 0.0 0.00 0.16 0.00 55 1012.7
20190215160053 57 0.0 0.0 0.00 0.16 0.00 54 1012.9
20190215154523 56 0.0 0.0 0.00 0.16 0.00 55 1013.1
20190215153033 56 0.0 0.0 0.00 0.16 0.00 54 1013.2
20190215151546 54 0.0 0.0 0.00 0.16 0.00 56 1013.3
20190215150017 54 0.0 0.0 0.00 0.16 0.00 55 1013.4
20190215144545 53 0.0 0.0 0.00 0.16 0.00 54 1013.6
20190215140015 52 0.0 0.0 0.00 0.16 0.00 55 1013.5
20190215134506 51 0.0 0.0 0.00 0.16 0.00 56 1013.7
20190215133007 51 0.0 0.0 0.00 0.16 0.00 56 1013.6
20190215131523 50 0.0 0.0 0.00 0.16 0.00 57 1013.5
20190215130024 49 0.0 0.0 0.00 0.16 0.00 59 1013.3
20190215124525 48 0.0 0.0 0.00 0.16 0.00 62 1013.2
20190215123033 45 0.0 0.0 0.00 0.16 0.00 66 1012.9
20190215121512 44 0.0 0.0 0.00 0.16 0.00 72 1012.9
20190215120024 45 0.0 0.0 0.00 0.16 0.00 65 1013.2
20190215114540 46 0.0 0.0 0.00 0.16 0.00 63 1013.4
20190215113026 48 0.0 0.0 0.00 0.16 0.00 60 1013.3
20190215111518 48 0.0 0.0 0.00 0.16 0.00 58 1013.2
20190215110007 48 0.0 0.0 0.00 0.16 0.00 59 1013.0
20190215104512 48 0.0 0.0 0.00 0.16 0.00 60 1012.7
20190215103016 48 0.0 0.0 0.00 0.16 0.00 59 1013.1
20190215101520 49 0.0 0.0 0.00 0.16 0.00 57 1013.6
20190215100025 49 0.0 0.0 0.00 0.16 0.00 57 1013.8
20190215093004 50 0.0 0.0 0.00 0.16 0.00 55 1013.9
20190215091521 51 0.0 0.0 0.00 0.16 0.00 54 1014.0
20190215090025 51 0.0 0.0 0.00 0.16 0.00 53 1014.0
20190215084504 50 0.0 0.0 0.00 0.16 0.00 53 1014.0
20190215083006 51 0.0 0.0 0.00 0.16 0.00 54 1014.5
20190215081526 51 0.0 0.0 0.00 0.16 0.00 52 1014.6
20190215080054 50 0.0 0.0 0.00 0.16 0.00 54 1014.7
20190215073019 51 0.0 0.0 0.00 0.16 0.00 53 1015.4
20190215071511 51 0.0 0.0 0.00 0.16 0.00 51 1015.6
20190215070023 51 0.0 0.0 0.00 0.16 0.00 49 1015.8
20190215064517 52 0.0 0.0 0.00 0.16 0.00 48 1015.6
20190215063016 52 0.0 0.0 0.00 0.16 0.00 47 1015.7
20190215061506 52 0.0 0.0 0.00 0.16 0.00 48 1015.6
20190215060130 52 0.0 0.0 0.00 0.16 0.00 48 1015.6
20190215053006 52 0.0 0.0 0.00 0.16 0.00 47 1015.3
20190215051505 52 0.0 0.0 0.00 0.16 0.00 48 1016.2
20190215050044 52 0.0 0.0 0.00 0.16 0.00 46 1016.2
20190215044601 52 0.0 0.0 0.00 0.16 0.16 45 1016.3
20190215043035 52 0.0 0.0 0.00 0.16 0.16 44 1016.0
20190215041521 52 0.0 0.0 0.00 0.16 0.16 46 1015.5
20190215040014 51 0.0 0.0 0.00 0.16 0.16 46 1016.6
20190215031504 49 0.0 0.0 0.00 0.16 0.16 55 1017.3
20190215030003 49 0.0 0.0 0.00 0.16 0.16 54 1017.1
20190215021504 52 0.0 0.0 0.00 0.16 0.16 49 1017.0
20190215020032 52 0.0 0.0 0.00 0.16 0.16 44 1017.2
20190215014527 52 0.0 0.0 0.00 0.16 0.16 43 1017.2
20190215013045 52 0.0 0.0 0.00 0.16 0.16 44 1016.8
20190215011526 52 0.0 0.0 0.00 0.16 0.16 47 1017.2
20190215010014 53 0.0 0.0 0.00 0.16 0.16 42 1017.2
20190215004556 54 0.0 0.0 0.00 0.16 0.16 42 1017.5
20190215003053 54 0.0 0.0 0.00 0.16 0.16 40 1018.2
20190215000014 55 0.0 0.0 0.00 0.16 0.16 38 1018.1
20190214234516 55 0.0 0.0 0.00 0.16 0.16 38 1017.7
20190214233032 56 0.0 0.0 0.00 0.16 0.16 38 1017.4
20190214231539 56 0.0 0.0 0.00 0.16 0.16 35 1016.9
20190214230035 56 0.0 0.0 0.00 0.16 0.16 36 1017.0
20190214224554 57 0.0 0.0 0.00 0.16 0.16 36 1017.2
20190214223028 57 0.0 0.0 0.01 0.16 0.16 35 1017.8
20190214221604 58 0.0 0.0 0.04 0.16 0.16 34 1017.7
20190214220031 59 0.0 0.0 0.11 0.16 0.16 32 1017.6
20190214214532 61 0.0 0.0 0.16 0.16 0.16 31 1017.7
20190214213016 61 0.0 0.0 0.14 0.14 0.14 33 1018.4
20190214211559 61 0.0 0.0 0.10 0.10 0.10 30 1018.3
20190214210033 61 80 0.0 4.0 0.02 0.02 0.02 29 1018.6
20190214204527 61 11 0.0 0.0 0.00 0.00 0.00 29 1018.6
20190214201515 61 353 0.0 0.0 0.00 0.00 0.00 27 1019.0
20190214200021 61 11 0.0 0.0 0.00 0.00 0.00 27 1019.2
20190214194526 61 11 0.0 0.0 0.00 0.00 0.00 25 1019.3